Location: Baix
(44.7118°N, 4.7648°E)
Time: 19:21:15
(UTC+00:00)

Cosmos 2237 Rocket - Pass Details

Date: 07 August 2020
Orbit: 836 x 848 km, 71.0° (Epoch: 23 September)

Event Time Altitude Azimuth Distance (km) Brightness Sun altitude
Rises 00:49:41 0° 336° (NNW) 3,410 6.0 -27.3°
Reaches altitude 10° 00:52:10 10° 339° (NNW) 2,469 5.2 -27.2°
Maximum altitude 00:57:48 67° 62° (ENE) 909 2.4 -26.8°
Enters shadow 00:59:07 51° 121° (ESE) 1,054 2.5 -26.8°
